Regional Weather Roundup
Issued by NWS Sioux Falls, SD

Home | Current Version | Previous Version | Text Only | Print | Product List | Glossary On
Versions: 1 2 3 4 5 6 7 8 9 10 11 12 13 14 15 16 17 18 19 20 21 22 23 24 25 26 27 28 29 30 31 32 33 34 35 36 37 38 39 40 41 42 43 44 45 46 47 48 49 50
701
ASUS43 KFSD 222210
RWRFSD

WEATHER ROUNDUP FOR SE SOUTH DAKOTA/SW MINNESOTA/NW IOWA
NATIONAL WEATHER SERVICE SIOUX FALLS SD
500 PM CDT SUN OCT 22 2017

NOTE: "FAIR" INDICATES FEW OR NO CLOUDS BELOW 12,000 FEET WITH NO
SIGNIFICANT WEATHER AND OR OBSTRUCTIONS TO VISIBILITY.


SDZ038>040-050-052>070-222300-
SOUTHEAST SOUTH DAKOTA

CITY           SKY/WX    TMP DP  RH WIND       PRES   REMARKS
BROOKINGS      SUNNY     64  30  27 SW17      29.88F
CHAMBERLAIN    SUNNY     69  30  23 SW10      29.85F
HURON          SUNNY     65  31  28 SW10      29.84F
MADISON        FAIR      63  28  27 SW16G25   29.89F
MITCHELL       SUNNY     69  28  21 SW13      29.87F
SIOUX FALLS    MOSUNNY   67  30  25 SW14      29.90F
WINNER         FAIR      70  32  24 W10       29.86F
YANKTON        SUNNY     68  28  22 SW15      29.91F
$$

MNZ071-072-080-081-089-090-097-098-222300-
SOUTHWEST MINNESOTA

CITY           SKY/WX    TMP DP  RH WIND       PRES   REMARKS
FAIRMONT       SUNNY     63  33  32 S7        29.96F
JACKSON        SUNNY     63  28  27 SW14      29.96F
LUVERNE        SUNNY     64  27  24 SW15G22   29.92F
MARSHALL       SUNNY     64  28  25 SW16G22   29.89F
MONTEVIDEO     SUNNY     64  27  24 SW14      29.87F
PIPESTONE      SUNNY     63  28  27 SW14G20   29.90F
REDWOOD FALLS  SUNNY     65  27  23 SW14      29.90F
TRACY          SUNNY     65  31  27 SW17      29.91F
WORTHINGTON    SUNNY     64  29  26 S15G22    29.94F
$$

IAZ001>003-012>014-020>022-031-032-NEZ013-014-SDZ071-222300-
NORTHWEST IOWA

CITY           SKY/WX    TMP DP  RH WIND       PRES   REMARKS
CHEROKEE       SUNNY     64  33  31 S10       29.97F
DENISON        SUNNY     64  32  29 S9G17     30.02F
ESTHERVILLE    SUNNY     62  29  28 SW8       29.96F
LE MARS        SUNNY     68  27  21 S12       29.95F
ORANGE CITY    SUNNY     68  32  26 SW13      29.95F
SHELDON        SUNNY     66  27  22 SW12G23   29.94S
SIOUX CITY     SUNNY     69  27  20 SW14G21   29.97S
SPENCER        SUNNY     66  27  23 SW10      29.96F
STORM LAKE     SUNNY     64  28  25 SW13G18   29.99S
$$

ABBREVIATIONS USED IN REMARKS
   TC - TEMPERATURE IN CELSIUS
  WCI - WIND CHILL INDEX
   HX - HEAT INDEX
  VSB - VISIBILITY





USA.gov is the U.S. government's official web portal to all federal, state and local government web resources and services.